Simultaneous Nadir Overpasses (SNOs) Predictions

Prediction of SNOs between GOES-15 and LANDSAT-8 Satellite Orbit:

Table of predicted SNOs for the next 14.0 days since TLE Epoch: 8/26/2022
Index Date Time (GOES-15) GOES-15 Lat,Lon LANDSAT-8 Lat,Lon Distance(km) Time Diff (sec)
1 08/27/2022 06:58:38 0.24,-127.96 -0.57,-131.71 427.08 80
2 08/29/2022 06:46:27 0.23,-127.93 0.08,-128.76 93.44 80
3 08/31/2022 06:36:55 0.23,-127.90 0.68,-125.79 239.89 80
4 08/31/2022 18:55:31 -0.26,-127.95 0.38,-130.96 341.49 80
5 09/02/2022 18:43:19 -0.25,-127.92 -0.22,-127.99 8.94 80
6 09/04/2022 18:33:47 -0.24,-127.87 -0.83,-125.03 322.59 80
7 09/05/2022 06:52:31 0.26,-127.80 -0.28,-130.22 275.42 80
8 09/07/2022 06:40:19 0.26,-127.74 0.34,-127.25 55.33 80
9 09/09/2022 06:30:47 0.26,-127.69 0.96,-124.29 385.79 80
10 09/09/2022 18:49:23 -0.28,-127.72 0.11,-129.45 197.40 80
